Weather History for Kremmling, CO

Change the Weather History Date:

Friday, November 8, 2013

  Actual Average (KEGE) Record (KEGE)
Temperature  
Mean Temperature 42 °F -  
Max Temperature 55 °F 50 °F 68 °F (2006)
Min Temperature 26 °F 21 °F 3 °F (1955)
Degree Days  
Heating Degree Days 24    
Moisture  
Dew Point 17 °F    
Average Humidity 40    
Maximum Humidity 80    
Minimum Humidity 19    
Precipitation  
Precipitation 0.00 in - - ()
Sea Level Pressure  
Sea Level Pressure 30.11 in    
Wind  
Wind Speed 10 mph (WSW)    
Max Wind Speed 21 mph    
Max Gust Speed 32 mph    
Visibility 10 miles    
Events      
Averages and records for this station are not official NWS values.
T = Trace of Precipitation, MM = Missing Value Source: NWS Daily Summary

Daily Weather History Graph

Daily Weather History Graph

Search for Another Location

Airport:

Trip Planner

Search our weather history database for the weather conditions in past years. The results will help you decide how hot, cold, wet, or windy it might be!

Date:

Astronomy

Nov. 08, 2013 Rise Set
Actual Time 6:43 AM MST 4:54 PM MST
Civil Twilight 6:14 AM MST 5:23 PM MST
Nautical Twilight 5:42 AM MST 5:55 PM MST
Astronomical Twilight 5:10 AM MST 6:27 PM MST
Moon 11:40 AM MST (11/8) 10:19 PM MST (11/8)
Length of Visible Light 11h 09m
Length of Day
10h 11m
Waxing Crescent, 34% of the Moon is Illuminated
Nov 8
Waxing Crescent
Nov 9
First Quarter
Nov 17
Full
Nov 25
Last Quarter
Dec 2
New

Hourly Weather History & Observations

Time (MST) Temp. Windchill Dew Point Humidity Pressure Visibility Wind Dir Wind Speed Gust Speed Precip Events Conditions
12:16 AM 39.2 °F 35.0 °F 21.2 °F 49% 30.15 in 10.0 mi NW 5.8 mph - N/A   Clear
12:35 AM 37.4 °F - 21.2 °F 52% 30.14 in 10.0 mi Calm Calm - N/A   Clear
12:56 AM 37.4 °F - 21.2 °F 52% 30.13 in 10.0 mi Calm Calm - N/A   Scattered Clouds
1:16 AM 37.4 °F - 21.2 °F 52% 30.12 in 10.0 mi Calm Calm - N/A   Scattered Clouds
1:36 AM 39.2 °F 33.6 °F 19.4 °F 45% 30.11 in 10.0 mi WSW 8.1 mph - N/A   Clear
1:56 AM 41.0 °F 31.9 °F 17.6 °F 39% 30.10 in 10.0 mi WSW 19.6 mph 28.8 mph N/A   Clear
2:16 AM 41.0 °F 32.2 °F 17.6 °F 39% 30.09 in 10.0 mi WSW 18.4 mph 29.9 mph N/A   Clear
2:36 AM 41.0 °F 31.9 °F 17.6 °F 39% 30.08 in 10.0 mi West 19.6 mph 27.6 mph N/A   Clear
2:56 AM 37.4 °F 27.2 °F 17.6 °F 45% 30.08 in 10.0 mi West 19.6 mph - N/A   Clear
3:16 AM 37.4 °F 26.9 °F 17.6 °F 45% 30.07 in 10.0 mi West 20.7 mph 26.5 mph N/A   Clear
3:36 AM 41.0 °F 31.6 °F 15.8 °F 36% 30.07 in 10.0 mi WSW 20.7 mph 28.8 mph N/A   Clear
3:56 AM 41.0 °F 32.2 °F 14.0 °F 33% 30.07 in 10.0 mi WSW 18.4 mph 24.2 mph N/A   Clear
4:15 AM 41.0 °F 32.5 °F 14.0 °F 33% 30.08 in 10.0 mi WSW 17.3 mph 24.2 mph N/A   Clear
4:36 AM 41.0 °F 33.5 °F 14.0 °F 33% 30.09 in 10.0 mi West 13.8 mph 21.9 mph N/A   Clear
4:56 AM 39.2 °F 34.2 °F 14.0 °F 36% 30.10 in 10.0 mi WNW 6.9 mph - N/A   Clear
5:16 AM 37.4 °F - 15.8 °F 41% 30.10 in 10.0 mi Calm Calm - N/A   Scattered Clouds
5:36 AM 37.4 °F - 17.6 °F 45% 30.11 in 10.0 mi Calm Calm - N/A   Mostly Cloudy
5:55 AM 39.2 °F 35.9 °F 14.0 °F 36% 30.09 in 10.0 mi ESE 4.6 mph - N/A   Scattered Clouds
6:16 AM 41.0 °F 33.5 °F 14.0 °F 33% 30.08 in 10.0 mi West 13.8 mph 21.9 mph N/A   Clear
6:36 AM 39.2 °F - 14.0 °F 36% 30.08 in 10.0 mi Calm Calm - N/A   Clear
6:56 AM 41.0 °F 35.2 °F 12.2 °F 31% 30.09 in 10.0 mi WSW 9.2 mph 20.7 mph N/A   Clear
7:16 AM 41.0 °F 34.3 °F 12.2 °F 31% 30.10 in 10.0 mi West 11.5 mph 21.9 mph N/A   Clear
7:36 AM 41.0 °F 33.1 °F 12.2 °F 31% 30.11 in 10.0 mi WSW 15.0 mph 20.7 mph N/A   Clear
7:56 AM 44.6 °F 38.8 °F 12.2 °F 27% 30.11 in 10.0 mi WSW 11.5 mph 23.0 mph N/A   Clear
8:16 AM 46.4 °F 40.7 °F 14.0 °F 27% 30.12 in 10.0 mi WSW 12.7 mph 20.7 mph N/A   Clear
8:36 AM 44.6 °F 38.4 °F 12.2 °F 27% 30.11 in 10.0 mi WSW 12.7 mph 25.3 mph N/A   Scattered Clouds
8:55 AM 44.6 °F 37.4 °F 12.2 °F 27% 30.11 in 10.0 mi SW 16.1 mph 26.5 mph N/A   Scattered Clouds
9:16 AM 46.4 °F 39.2 °F 12.2 °F 25% 30.11 in 10.0 mi SSW 18.4 mph 25.3 mph N/A   Clear
9:36 AM 46.4 °F 39.5 °F 12.2 °F 25% 30.12 in 10.0 mi SW 17.3 mph 26.5 mph N/A   Clear
9:56 AM 50.0 °F - 14.0 °F 24% 30.11 in 10.0 mi WSW 19.6 mph 26.5 mph N/A   Clear
10:16 AM 50.0 °F - 14.0 °F 24% 30.12 in 10.0 mi WSW 17.3 mph 31.1 mph N/A   Clear
10:36 AM 50.0 °F - 12.2 °F 22% 30.12 in 10.0 mi SW 20.7 mph 25.3 mph N/A   Clear
10:56 AM 51.8 °F - 14.0 °F 22% 30.12 in 10.0 mi WSW 18.4 mph 31.1 mph N/A   Clear
11:16 AM 51.8 °F - 14.0 °F 22% 30.12 in 10.0 mi SW 12.7 mph 27.6 mph N/A   Clear
11:36 AM 53.6 °F - 17.6 °F 24% 30.11 in 10.0 mi WSW 15.0 mph 23.0 mph N/A   Clear
11:56 AM 51.8 °F - 14.0 °F 22% 30.10 in 10.0 mi WSW 20.7 mph 32.2 mph N/A   Clear
12:16 PM 53.6 °F - 14.0 °F 21% 30.09 in 10.0 mi WSW 16.1 mph 25.3 mph N/A   Clear
12:36 PM 53.6 °F - 14.0 °F 21% 30.08 in 10.0 mi WSW 15.0 mph 24.2 mph N/A   Clear
12:56 PM 53.6 °F - 14.0 °F 21% 30.07 in 10.0 mi WSW 16.1 mph 31.1 mph N/A   Clear
1:16 PM 53.6 °F - 14.0 °F 21% 30.06 in 10.0 mi WSW 18.4 mph 27.6 mph N/A   Clear
1:35 PM 55.4 °F - 14.0 °F 20% 30.06 in 10.0 mi SW 16.1 mph 23.0 mph N/A   Clear
1:56 PM 55.4 °F - 14.0 °F 20% 30.05 in 10.0 mi WSW 18.4 mph 25.3 mph N/A   Clear
2:16 PM 53.6 °F - 12.2 °F 19% 30.04 in 10.0 mi WSW 19.6 mph 29.9 mph N/A   Clear
2:36 PM 53.6 °F - 14.0 °F 21% 30.04 in 10.0 mi WSW 20.7 mph 29.9 mph N/A   Clear
2:56 PM 53.6 °F - 14.0 °F 21% 30.04 in 10.0 mi WSW 20.7 mph 26.5 mph N/A   Clear
3:16 PM 53.6 °F - 14.0 °F 21% 30.04 in 10.0 mi WSW 18.4 mph 26.5 mph N/A   Clear
3:36 PM 53.6 °F - 14.0 °F 21% 30.05 in 10.0 mi WSW 16.1 mph 23.0 mph N/A   Clear
3:56 PM 51.8 °F - 14.0 °F 22% 30.05 in 10.0 mi WSW 13.8 mph 18.4 mph N/A   Clear
4:16 PM 50.0 °F - 15.8 °F 26% 30.06 in 10.0 mi WSW 5.8 mph 10.4 mph N/A   Clear
4:36 PM 50.0 °F - 14.0 °F 24% 30.07 in 10.0 mi WNW 8.1 mph - N/A   Clear
4:56 PM 46.4 °F 42.9 °F 19.4 °F 34% 30.08 in 10.0 mi NW 6.9 mph - N/A   Clear
5:16 PM 46.4 °F 41.9 °F 17.6 °F 32% 30.09 in 10.0 mi North 9.2 mph 18.4 mph N/A   Clear
5:36 PM 42.8 °F 39.3 °F 17.6 °F 36% 30.10 in 10.0 mi NNW 5.8 mph - N/A   Clear
5:56 PM 41.0 °F - 17.6 °F 39% 30.10 in 10.0 mi Calm Calm - N/A   Clear
6:16 PM 37.4 °F 34.9 °F 19.4 °F 48% 30.11 in 10.0 mi West 3.5 mph - N/A   Clear
6:36 PM 37.4 °F - 19.4 °F 48% 30.12 in 10.0 mi Calm Calm - N/A   Clear
6:56 PM 33.8 °F - 21.2 °F 60% 30.12 in 10.0 mi Calm Calm - N/A   Clear
7:16 PM 33.8 °F - 23.0 °F 65% 30.12 in 10.0 mi Calm Calm - N/A   Clear
7:35 PM 32.0 °F 28.7 °F 21.2 °F 64% 30.12 in 10.0 mi NNW 3.5 mph - N/A   Clear
7:56 PM 32.0 °F - 23.0 °F 69% 30.14 in 10.0 mi Calm Calm - N/A   Clear
8:16 PM 30.2 °F - 21.2 °F 69% 30.14 in 10.0 mi Calm Calm - N/A   Clear
8:36 PM 30.2 °F - 21.2 °F 69% 30.14 in 10.0 mi Calm Calm - N/A   Clear
8:56 PM 30.2 °F - 23.0 °F 75% 30.15 in 10.0 mi Calm Calm - N/A   Clear
9:16 PM 30.2 °F 25.4 °F 23.0 °F 75% 30.16 in 10.0 mi ESE 4.6 mph - N/A   Clear
9:36 PM 30.2 °F - 23.0 °F 75% 30.16 in 10.0 mi Calm Calm - N/A   Clear
9:56 PM 30.2 °F - 23.0 °F 75% 30.16 in 10.0 mi Calm Calm - N/A   Clear
10:15 PM 28.4 °F - 21.2 °F 74% 30.17 in 10.0 mi Calm Calm - N/A   Clear
10:36 PM 28.4 °F 24.6 °F 21.2 °F 74% 30.18 in 10.0 mi East 3.5 mph - N/A   Clear
10:56 PM 30.2 °F - 23.0 °F 75% 30.18 in 10.0 mi Calm Calm - N/A   Clear
11:16 PM 28.4 °F - 21.2 °F 74% 30.18 in 10.0 mi Calm Calm - N/A   Clear
11:36 PM 28.4 °F - 21.2 °F 74% 30.19 in 10.0 mi Calm Calm - N/A   Clear
11:56 PM 26.6 °F - 21.2 °F 80% 30.20 in 10.0 mi Calm Calm - N/A   Clear